Vorticity
nan nan nan nan nan nan nan nan nan nan nan nan nan nan nan nan nan nan nan nan nan nan nan nan nan nan nan nan nan nan nan nan nan nan nan nan nan nan nan nan nan nan nan nan nan
nan 6 6 6 6 6 7 7 6 7 9 9 8 7 7 13 18 8 14 9 10 5 2 5 6 8 6 9 3 6 9 10 2 7 6 6 7 12 13 3 11 12 13 10 nan
nan 6 6 6 6 7 7 7 7 8 9 10 9 8 9 12 13 14 16 14 12 4 2 5 7 8 11 8 7 7 10 7 7 10 8 1 9 16 2 7 11 5 4 4 nan
nan 7 6 6 7 7 8 8 8 9 11 12 11 9 12 13 4 7 24 26 3 2 4 6 9 8 7 10 12 11 9 -3 11 14 10 5 3 7 9 19 12 8 5 4 nan
nan 7 7 6 7 8 8 8 8 9 11 12 13 12 11 9 7 8 19 13 3 8 5 7 5 8 4 8 7 10 10 5 6 13 10 15 5 -1 12 20 8 6 6 4 nan
nan 7 7 8 7 8 8 8 7 9 11 14 13 9 8 2 16 12 5 4 6 6 9 6 7 6 5 9 11 9 8 2 12 13 9 3 4 6 18 15 7 5 4 5 nan
nan 8 8 7 6 8 8 8 8 10 12 18 13 5 7 7 6 9 5 5 5 5 6 3 6 2 7 13 15 8 5 5 8 9 17 4 6 7 13 15 7 4 4 6 nan
nan 7 7 7 8 9 8 7 9 15 20 17 8 7 4 10 8 3 8 9 8 5 3 5 7 6 10 9 6 5 6 8 7 8 8 7 7 9 6 11 9 5 7 10 nan
nan 7 8 8 8 9 8 8 21 24 16 6 3 7 5 12 17 11 7 8 7 7 8 9 11 7 6 13 4 9 9 3 8 12 6 6 6 10 11 5 5 10 8 12 nan
nan 8 8 8 8 10 14 24 24 13 7 4 2 5 13 13 11 13 7 7 8 8 11 11 8 7 4 9 9 5 5 9 10 10 9 4 4 9 13 3 8 8 12 12 nan
nan 8 8 8 9 9 19 21 8 9 10 8 2 -2 4 13 8 7 13 8 7 8 9 7 7 6 5 1 2 4 8 8 9 9 11 7 4 7 11 6 2 11 16 10 nan
nan 8 8 8 9 23 18 7 4 5 12 13 6 6 3 8 9 9 12 8 8 6 3 11 9 8 6 3 6 6 8 5 10 14 6 13 8 14 9 13 8 13 12 7 nan
nan 8 8 8 27 26 9 3 3 7 16 15 18 9 15 8 8 12 5 6 5 8 8 7 6 8 6 6 11 11 13 5 4 9 6 8 15 15 8 9 12 12 13 10 nan
nan 8 6 23 26 8 8 6 12 10 8 17 13 13 14 4 12 20 5 4 9 8 11 4 12 9 8 9 8 10 15 10 4 4 14 5 7 12 17 2 4 6 11 12 nan
nan 10 15 23 11 8 4 1 16 15 9 14 10 14 16 4 8 16 7 6 13 6 8 6 13 16 11 8 7 8 10 21 12 1 8 5 11 12 13 8 8 5 8 12 nan
nan 9 21 18 11 6 3 14 16 9 9 12 11 7 6 6 3 12 9 9 12 10 4 11 6 10 9 14 13 12 6 6 15 10 9 10 7 11 12 12 7 9 10 8 nan
nan 19 23 9 6 7 11 16 12 4 8 12 9 13 6 9 7 8 10 7 4 5 7 12 10 12 12 9 10 9 9 8 6 12 9 9 9 12 7 17 19 9 10 9 nan
nan 34 24 6 6 6 13 12 8 5 8 8 13 16 9 9 13 9 6 5 4 8 11 7 10 14 10 13 10 5 7 7 8 6 9 11 7 11 18 13 14 11 11 11 nan
nan 29 10 16 12 6 11 9 8 6 2 5 13 11 9 9 19 18 9 10 10 4 5 2 7 7 7 12 9 8 10 10 4 6 11 7 4 13 15 10 15 14 16 18 nan
nan 12 12 18 10 6 9 7 6 2 7 13 13 3 7 8 9 11 14 12 19 7 2 3 13 3 10 10 12 16 2 6 12 13 5 9 12 12 10 15 13 12 5 17 nan
nan 12 16 10 3 9 11 7 7 4 1 7 11 8 9 9 7 7 6 12 10 15 15 7 8 7 11 10 7 4 7 11 15 9 8 9 11 15 9 14 12 9 12 15 nan
nan 8 11 9 7 8 7 7 2 4 14 17 9 9 10 9 10 12 11 5 6 18 18 13 4 16 3 9 13 12 8 4 5 9 9 10 3 13 25 12 4 11 10 10 nan
nan 9 10 11 8 8 9 9 9 11 16 19 10 10 10 7 11 8 8 10 10 14 12 15 13 10 7 12 16 14 14 6 2 15 13 5 5 12 19 15 11 9 8 9 nan
nan 9 12 9 9 5 11 11 10 13 11 11 10 6 7 13 11 5 7 8 8 9 17 19 13 14 13 6 3 4 10 14 10 5 14 5 11 10 11 9 7 5 9 12 nan
nan 10 9 4 6 10 12 9 6 11 13 4 11 10 11 9 9 12 10 10 8 7 14 12 8 11 13 8 8 7 4 11 13 8 10 13 15 14 13 11 8 4 5 9 nan
nan 8 13 10 7 12 12 9 1 13 13 9 10 16 16 9 11 7 8 11 6 5 9 11 11 10 11 14 13 7 6 9 11 16 10 11 6 13 13 8 12 16 13 7 nan
nan nan nan nan nan nan nan nan nan nan nan nan nan nan nan nan nan nan nan nan nan nan nan nan nan nan nan nan nan nan nan nan nan nan nan nan nan nan nan nan nan nan nan nan nan
CAPE
0 1 2 1 2 3 3 3 3 2 0 1 0 5 5 1 0 0 0 0 0 54 0 0 0 0 0 0 215 223 0 77 149 81 91 253 176 48 0 50 0 0 0 0 0
2 0 0 1 3 3 2 2 3 3 0 0 0 0 3 1 0 0 0 0 0 90 0 0 0 0 0 0 253 394 1 105 364 67 215 228 467 41 0 5 0 0 0 0 0
0 0 0 1 2 1 1 2 2 4 3 3 1 0 3 0 0 0 0 0 658 54 0 0 0 0 0 0 252 271 195 0 125 285 414 106 457 17 3 4 0 0 0 0 0
1 1 1 2 1 1 1 1 2 3 2 0 0 0 1 0 0 0 291 1 847 0 0 0 0 0 0 0 519 551 450 0 77 354 164 388 75 100 12 11 2 0 0 0 0
0 2 1 2 1 1 1 1 2 2 2 0 0 1 0 0 0 0 611 184 0 0 0 0 0 0 0 0 442 257 814 331 317 291 109 106 20 285 117 7 0 0 0 0 0
2 3 3 2 2 1 1 1 1 1 1 0 1 0 0 0 0 0 0 0 0 0 0 0 0 0 0 0 22 345 722 502 412 470 233 357 32 100 338 0 0 0 0 0 0
4 3 3 2 1 0 1 1 0 0 0 0 0 0 0 0 0 0 0 0 0 0 0 0 0 0 0 0 382 240 636 155 6 264 524 673 548 483 456 0 0 0 0 0 0
4 3 2 1 0 1 1 0 0 0 0 0 0 0 0 0 0 0 0 0 0 0 0 0 0 0 0 0 196 277 9 1 143 0 339 415 374 288 373 130 0 0 0 0 0
3 2 2 1 1 1 0 0 0 0 0 0 0 0 0 0 0 0 0 0 0 0 0 0 0 0 0 0 0 334 62 34 117 226 170 531 432 207 203 246 62 9 0 0 0
1 1 1 1 0 0 1 0 0 0 0 0 0 0 0 0 0 0 0 0 0 0 0 0 0 0 0 0 0 40 111 90 0 281 225 329 378 70 70 331 171 140 0 0 0
2 1 1 0 0 0 0 0 0 0 0 0 0 0 0 0 0 0 0 0 0 0 0 0 0 0 0 0 0 0 14 184 280 310 610 481 504 346 36 147 251 282 0 0 0
2 2 1 0 0 0 0 0 0 0 0 0 0 0 0 0 0 0 0 0 0 0 0 0 0 0 0 0 0 0 0 69 37 13 182 313 264 241 132 142 260 91 0 0 0
0 0 0 0 0 0 0 0 0 0 0 0 0 0 0 0 0 0 0 0 0 0 0 0 0 0 0 0 0 0 0 38 230 181 163 274 238 468 481 487 447 155 0 0 0
0 0 0 1 0 0 0 0 0 0 0 0 0 0 0 0 0 0 0 0 0 0 0 0 0 0 0 0 0 0 0 5 466 147 122 206 88 590 510 348 309 350 16 3 0
0 0 0 1 0 0 0 0 0 0 0 0 0 0 0 0 0 0 0 0 0 0 0 0 0 0 0 0 0 0 0 0 200 71 5 39 5 129 544 539 365 54 256 0 0
0 0 0 0 0 0 0 0 0 0 0 0 0 0 0 0 0 0 0 0 0 0 0 0 0 0 0 0 0 0 0 0 0 0 0 7 1 0 590 587 506 251 304 39 0
0 0 0 0 0 0 0 0 0 0 0 0 0 0 0 0 0 0 0 0 0 0 0 0 0 0 0 0 0 0 0 0 0 0 0 0 1 5 62 257 495 345 287 200 3
0 0 0 0 0 0 0 0 0 0 0 0 0 0 0 0 0 0 0 0 0 0 0 0 0 0 0 0 0 0 0 0 0 0 0 0 21 21 12 157 118 193 86 316 65
0 0 0 0 0 0 0 0 0 0 0 0 0 0 0 0 0 0 0 0 0 0 0 0 0 0 0 0 0 0 0 0 0 0 0 0 0 0 0 5 0 0 19 152 219
0 0 0 0 0 0 0 0 0 0 0 0 0 0 0 0 0 0 0 0 0 0 0 0 0 0 0 0 0 0 0 0 0 0 0 0 0 0 8 2 48 82 104 174 209
0 0 0 0 0 0 0 0 0 0 0 0 0 0 0 0 0 0 0 0 0 0 0 0 0 0 0 0 0 0 0 0 0 0 0 0 0 0 0 57 280 182 141 170 222
0 0 0 0 0 0 0 0 0 0 0 0 0 0 0 0 0 0 0 0 0 0 0 0 0 0 0 0 0 0 0 0 0 0 0 0 0 0 0 254 276 292 177 272 393
0 0 0 0 0 0 0 0 0 0 0 0 0 0 0 0 0 0 0 0 0 0 0 0 0 0 0 0 0 0 0 0 0 0 0 0 0 121 25 242 420 578 346 182 76
0 0 0 0 0 0 0 0 0 0 0 0 0 0 0 0 0 0 0 0 0 0 204 0 0 0 0 0 0 0 0 0 0 0 0 0 0 316 39 264 333 345 201 163 197
0 0 0 0 0 0 0 0 0 0 0 0 0 0 0 0 0 0 0 0 0 1 0 0 0 0 0 0 0 0 0 0 0 0 0 0 48 273 61 53 62 41 9 148 90
0 0 0 0 0 0 0 0 0 0 0 0 0 0 0 0 0 0 0 0 0 0 0 0 0 0 0 0 0 0 0 0 0 0 0 0 0 0 305 99 39 0 14 71 332
0 0 0 0 0 0 0 0 0 0 0 0 0 0 0 0 0 0 0 0 0 0 0 0 0 0 0 0 0 0 0 0 0 0 0 0 0 0 41 111 15 171 286 462 543